Regional Weather Roundup
Issued by NWS San Angelo, TX

Home | Current Version | Previous Version | Text Only | Print | Product List | Glossary On
Versions: 1 2 3 4 5 6 7 8 9 10 11 12 13 14 15 16 17 18 19 20 21 22 23 24 25 26 27 28 29 30 31 32 33 34 35 36 37 38 39 40 41 42 43 44 45 46 47 48 49 50
000
ASUS44 KSJT 020511
RWRSJT
WEST CENTRAL TEXAS REGIONAL WEATHER ROUNDUP
NATIONAL WEATHER SERVICE SAN ANGELO TX
1200 AM CDT WED SEP 02 2015

NOTE: "FAIR" INDICATES FEW OR NO CLOUDS BELOW 12,000 FEET WITH NO
SIGNIFICANT WEATHER AND/OR OBSTRUCTIONS TO VISIBILITY.

TXZ049-054-064>066-071>073-076>078-098-099-113-114-127-128-139-140-
154-155-168>170-020600
...LOCATIONS ACROSS WEST CENTRAL TEXAS...

CITY           SKY/WX    TMP DP  RH WIND       PRES   REMARKS
SAN ANGELO     CLEAR     75  57  53 SE5       30.03R
ABILENE        CLEAR     79  62  56 SE12      30.05R
DYESS AFB      CLEAR     80  63  55 SE14      30.03S
JUNCTION       CLEAR     79  66  64 S13G21    30.06R
SWEETWATER     CLEAR     77  55  46 SE9       30.09S
BROWNWOOD      CLEAR     77  64  65 SE9       30.05R
COLEMAN        CLEAR     80  64  59 SE12      30.06R
SONORA         CLEAR     77  61  57 CALM      30.10S
OZONA          FAIR      77  55  47 S5        30.09S
BRADY          CLEAR     79  64  61 SE10      30.06R
$$

TEXAS PANHANDLE/OKLAHOMA PANHANDLE

CITY           SKY/WX    TMP DP  RH WIND       PRES   REMARKS
AMARILLO       PTCLDY    72  55  55 SE9       30.10R
BORGER         MOCLDY    80  56  43 S12       30.05S
CANADIAN       PTCLDY    78  59  51 S12       30.02R
DALHART        LGT RAIN  71  60  68 S13       30.10F
DUMAS          CLOUDY    76  55  47 S15       30.09S
GUYMON         NOT AVBL
HEREFORD       PTCLDY    71  58  63 SW3       30.13R
PAMPA          PTCLDY    77  56  46 S14       30.08S
PERRYTON       CLOUDY    78  56  46 S10       30.03S
$$

SOUTHERN PANHANDLE/SOUTH PLAINS/ROLLING PLAINS

CITY           SKY/WX    TMP DP  RH WIND       PRES   REMARKS
LUBBOCK        CLEAR     73  54  51 SE9       30.09R
SNYDER         CLEAR     77  55  46 SE8       30.07R
CHILDRESS      CLEAR     79  58  48 S10       30.02S
SEMINOLE       CLEAR     72  51  48 S6        30.10S
$$

PERMIAN BASIN

CITY           SKY/WX    TMP DP  RH WIND       PRES   REMARKS
MIDLAND        CLEAR     76  52  43 S7        30.06S
ODESSA         NOT AVBL
WINK           CLEAR     78  52  40 SE8       30.04R
$$

FAR WEST/SOUTHWEST MOUNTAINS/TRANS PECOS

CITY           SKY/WX    TMP DP  RH WIND       PRES   REMARKS
ALPINE         CLEAR     74  52  45 S8        30.21R
DRYDEN           N/A     81  57  43 VRB3      30.03S
EL PASO        MOCLDY    87  41  19 W7        30.05R
FORT STOCKTON  CLEAR     77  51  40 SE10      30.07R
GUADALUPE PASS MOCLDY    74  48  39 NE31G38   30.20F
MARFA          CLEAR     70  48  46 NE3       30.21R
PECOS          CLEAR     79  49  34 SE9       30.03S
$$

DALLAS/FORT WORTH METROPLEX

CITY           SKY/WX    TMP DP  RH WIND       PRES   REMARKS
DFW AIRPORT    PTCLDY    82  67  60 SE13      30.03R
FTW MEACHAM    CLEAR     83  67  58 SE14      30.03R
DAL-EXECUTIVE  CLEAR     80  67  64 S7        30.04R
GRAND PRAIRIE  CLEAR     81  68  65 SE10      30.05R
ADDISON        CLEAR     82  69  66 S10G20    30.06S
MESQUITE       CLEAR     77  68  72 SE7       30.05R
LANCASTER      CLEAR     78  65  62 SE7       30.05S
$$

NORTH CENTRAL TEXAS

CITY           SKY/WX    TMP DP  RH WIND       PRES   REMARKS
SHRMAN/DENISON CLEAR     80  70  71 SE9       30.05S
GAINESVILLE    CLEAR     78  65  64 SE7       30.06R
BRIDGEPORT     CLEAR     79  67  66 S6        30.05R
DENTON         CLEAR     82  66  58 SE14      30.03R
WAXAHACHIE     CLEAR     78  68  72 SE6       30.06R
GRANBURY       CLEAR     81  66  60 SE6       30.05R
$$

WESTERN NORTH TEXAS

CITY           SKY/WX    TMP DP  RH WIND       PRES   REMARKS
WICHITA FALLS  CLEAR     76  63  64 SE9       30.01S
VERNON         CLEAR     82  55  38 S12       30.01S
BRECKENRIDGE   CLEAR     81  64  55 SE10      30.03S
COMANCHE       CLEAR     77  67  69 SE9       30.06R
$$

CENTRAL AND SOUTH CENTRAL TEXAS

CITY           SKY/WX    TMP DP  RH WIND       PRES   REMARKS
AUSTIN/BERGSTM PTCLDY    73  66  78 CALM      30.05R
WACO           CLEAR     78  67  68 S15       30.05R
HILLSBORO      CLEAR     73  66  77 SE3       30.06R
TEMPLE         CLEAR     75  64  69 SE9       30.05S
KILLEEN-GRAY   CLEAR     75  67  76 SE10      30.05R
FORT HOOD      CLEAR     76  67  73 SE12      30.05R
GEORGETOWN     CLEAR     75  66  73 SE5       30.07R
LAGO VISTA     FAIR      77  65  68 SE9       30.08R
SAN MARCOS     CLEAR     75  66  73 S5        30.07R
NEW BRAUNFELS  CLEAR     75  68  78 SE6       30.04R
RANDOLPH AFB   CLEAR     73  69  87 SE6       30.05R
SAN ANTONIO    PTCLDY    77  67  71 SE9       30.06R
STINSON        CLEAR     77  68  73 SE5       30.03R
PLEASANTON     NOT AVBL
LA GRANGE      CLEAR     76  73  90 SE3       30.03S
GIDDINGS       CLEAR     73  69  89 SE5       30.09R
$$

EAST TEXAS

CITY           SKY/WX    TMP DP  RH WIND       PRES   REMARKS
PARIS          CLEAR     73  63  68 SE5       30.06S
CLARKSVILLE    NOT AVBL
TYLER          CLEAR     76  69  79 S6        30.06R
LONGVIEW       CLEAR     74  71  91 S5        30.05S
PALESTINE      CLEAR     73  69  86 CALM      30.07R
NACOGDOCHES    MOCLDY    72  70  94 CALM      30.06S
$$

TEXAS HILL COUNTRY AND EDWARDS PLATEAU

CITY           SKY/WX    TMP DP  RH WIND       PRES   REMARKS
LLANO          CLEAR     79  64  61 SE6       30.09R
HORSESHOE BAY  FAIR      77  66  67 S7        30.06R
KERRVILLE      PTCLDY    76  69  77 S8        30.09R
FREDERICKSBRG  CLEAR     75  64  68 S3        30.09R
ROCKSPRINGS    CLEAR     75  66  73 SE10G20   30.12R
HONDO          CLEAR     78  67  68 SE9       30.07R
UVALDE         CLEAR     78  68  71 SE14      30.05R
DEL RIO        CLEAR     83  65  54 E13       29.99R
$$

SOUTHEAST TEXAS

CITY           SKY/WX    TMP DP  RH WIND       PRES   REMARKS
COLLEGE STN    CLEAR     74  69  85 SE3       30.05S
CALDWELL       CLEAR     72  72 100 E3        30.09R
CROCKETT       CLEAR     72  70  94 CALM      30.09R
BRENHAM        CLEAR     73  72  94 CALM      30.05S
HUNTSVILLE     CLEAR     73  70  90 CALM      30.06S
CONROE         PTCLDY    71  68  90 CALM      30.06R
HOUSTON BUSH   MOCLDY    74  72  93 SE6       30.04S
HOUSTON HOBBY  MOCLDY    77  72  84 E5        30.03S
PERLAND        MOCLDY    77  73  87 N3        30.05S
WHARTON        FAIR      72  71  95 CALM      30.04S
$$

THE UPPER TEXAS COAST

CITY           SKY/WX    TMP DP  RH WIND       PRES   REMARKS
ORANGE         CLOUDY   N/A N/A N/A CALM      30.07R
PORT ARTHUR    CLOUDY    76  74  93 NE5       30.04R
GALVESTON      PTCLDY    78  75  90 NE6       30.05R
ANGLETON       MOCLDY    77  74  90 NE5       30.03R
BAY CITY       MOCLDY    75  75 100 NE3       30.03S
$$

TEXAS COASTAL BEND, RIO GRANDE PLAINS DEEP SOUTH TEXAS

CITY           SKY/WX    TMP DP  RH WIND       PRES   REMARKS
VICTORIA       CLEAR     73  72  96 E5        30.03R
BEEVILLE       FAIR      74  74  98 E3        30.02S
ROCKPORT       PTCLDY    82  73  74 SE12      30.00R
PORT ARANSAS   MOCLDY    81  74  79 SE10      30.00S
PORT LAVACA    MOCLDY    76  73  93 E7        30.02
CORPUS CHRISTI PTCLDY    76  73  91 SE6       30.00S
KINGSVILLE NAS PTCLDY    75  75 100 E3        30.00S
COTULLA        CLEAR     80  71  74 SE8       30.02R
LAREDO         CLEAR     80  73  79 SE9       30.02R
BROWNSVILLE    CLEAR     78  75  90 E3        29.99R
PORT ISABEL    PTCLDY    83  76  79 SE10      29.98S
HEBBRONVILLE   NOT AVBL
MCALLEN        CLEAR     80  75  84 E6        30.00R
WESLACO        CLEAR     78  74  85 SE3       29.99R
FALFURRIAS     CLEAR     76  74  91 CALM      30.00R
EDINBURG       CLEAR     78  74  87 CALM      30.00R
$$



USA.gov is the U.S. government's official web portal to all federal, state and local government web resources and services.